Flag for U.S.A. Weather past 2 weeks in Lafayette, Indiana, U.S.A.

Now
45 °F

Fog.


Feels Like: 40 °F
Forecast: 36 / 47 °F
Wind: 9 mph from Southwest

Location: Purdue University Airport

Current Time: Dec 27, 2014 at 1:48:52 PM

Latest Report: Dec 27, 2014 at 1:01 PM


Visibility: 4 mi

Pressure: 30.05 "Hg

Humidity: 100%

Dew point: 45 °F

Location of LafayetteLocation

Historic Weather in Lafayette — Graph

°F

Lafayette temperature yesterday

Maximum temperature yesterday: 50 °F (at 1:54 PM)
Minimum temperature yesterday: 34 °F (at 1:54 AM)
Average temperature yesterday: 42 °F

Past Weeks' High & Low Weather Summary

 TemperatureHumidityPressure
High51 °F (Dec 23, 12:54 PM)100% (Dec 12, 1:54 PM)30.35 "Hg (Dec 12, 1:54 PM)
Low18 °F (Dec 19, 2:54 AM)61% (Dec 23, 2:54 PM)29.51 "Hg (Dec 24, 1:57 PM)
Average36 °F87%30.06 "Hg
* Reported Dec 12 1:01 PM — Dec 27 12:01 PM, Lafayette, Weather by CustomWeather, © 2014

Note: Actual official high and low records may vary slightly from our data, if they occured in-between our weather recording intervals... More about our weather records

Advertising

Lafayette weather history for previous 24 hours

 ConditionsComfort  
Time TempWeatherWind HumidityBarometerVisibility
12:01 PM
Dec 27
45 °FFog.10 mph97%30.09 "Hg2 mi
10:54 AM45 °FLow clouds.8 mph97%30.08 "Hg7 mi
9:54 AM44 °FFog.8 mph100%30.09 "Hg1 mi
8:54 AM44 °FFog.8 mph96%30.09 "Hg6 mi
7:54 AM44 °FFog.8 mph96%30.09 "Hg5 mi
6:54 AM44 °FFog.9 mph96%30.07 "Hg4 mi
5:54 AM43 °FFog.7 mph100%30.07 "Hg3 mi
4:54 AM44 °FLight rain. Overcast.7 mph89%30.07 "Hg8 mi
3:54 AM46 °FLight rain. Mostly cloudy.7 mph77%30.09 "Hg10 mi
2:54 AM47 °FOvercast.7 mph77%30.11 "Hg10 mi
1:54 AM48 °FOvercast.8 mph77%30.08 "Hg10 mi
12:54 AM47 °FOvercast.9 mph80%30.09 "Hg10 mi
11:54 PM
Dec 26
47 °FMostly cloudy.6 mph80%30.10 "Hg10 mi
10:54 PM46 °FOvercast.6 mph83%30.10 "Hg10 mi
9:54 PM47 °FOvercast.10 mph80%30.09 "Hg10 mi
8:54 PM46 °FOvercast.7 mph79%30.09 "Hg10 mi
7:54 PM45 °FOvercast.6 mph82%30.09 "Hg10 mi
6:54 PM44 °FClear.5 mph82%30.09 "Hg10 mi
5:54 PM47 °FPassing clouds.9 mph77%30.09 "Hg10 mi
4:54 PM48 °FSunny.7 mph74%30.08 "Hg10 mi
3:54 PM49 °FSunny.9 mph71%30.08 "Hg10 mi
2:54 PM50 °FSunny.13 mph68%30.07 "Hg10 mi
1:54 PM50 °FSunny.10 mph68%30.08 "Hg10 mi
Weather by CustomWeather, © 2014

See weather overviewHow to use our weather pages